Location: Carrières
(48.9495°N, 2.0407°E)
Time: 06:56:15
(UTC+00:00)

Cosmos 1241 Rocket - Pass Details

Date: 28 January 2023
Orbit: 928 x 1019 km, 65.8° (Epoch: 24 March)

Event Time Altitude Azimuth Distance (km) Brightness Sun altitude
Rises 18:36:06 0° 210° (SSW) 3,675 8.1 -18.6°
Reaches altitude 10° 18:38:38 10° 209° (SSW) 2,743 7.3 -19.0°
Maximum altitude 18:45:05 80° 125° (SE) 1,025 4.5 -20.1°
Enters shadow 18:49:17 24° 41° (NE) 1,961 5.7 -20.8°
